Regional Weather Roundup
Issued by NWS Spokane, WA

Home | Current Version | Previous Version | Text Only | Print | Product List | Glossary On
Versions: 1 2 3 4 5 6 7 8 9 10 11 12 13 14 15 16 17 18 19 20 21 22 23 24 25 26 27 28 29 30 31 32 33 34 35 36 37 38 39 40 41 42 43 44 45 46 47 48 49 50
000
NZUS01 KOTX 010900
RWROTX
EASTERN WASHINGTON/NORTHERN IDAHO ROUNDUP
NATIONAL WEATHER SERVICE, SPOKANE WA
100 AM PST SUN FEB 01 2015

Note: "fair" indicated few or no clouds below 12,000 feet with no
significant weather and/or obstructions to visibility.

...NORTHEAST WASHINGTON AND NORTHERN IDAHO PANHANDLE...

CITY           SKY/WX    TMP DP  RH WIND       PRES   REMARKS
SPOKANE INTL   CLOUDY    29  28  96 NE5       30.23F WCI  24
SPOKANE DOWNTO MOCLDY    29  27  92 CALM      30.26F
COEUR D ALENE  MOCLDY    28  27  93 NE5       30.24S WCI  23
DEER PARK      MOCLDY    26  25  96 N6        30.25F WCI  19

...SOUTHEAST WASHINGTON AND SOUTHERN IDAHO PANHANDLE...

CITY           SKY/WX    TMP DP  RH WIND       PRES   REMARKS
WALLA WALLA    CLOUDY    36  33  89 SW5       30.25R
PULLMAN/MOSCOW CLOUDY    32  28  85 E10       30.22F WCI  24
LOWELL           N/A     29  27  92 CALM      30.33S

...COLUMBIA BASIN...

CITY           SKY/WX    TMP DP  RH WIND       PRES   REMARKS
EPHRATA        CLOUDY    35  31  85 N6        30.28F
MOSES LAKE     CLOUDY    35  31  85 N6        30.30S
TRI CITIES     CLOUDY    37  34  89 NW9       30.30F
HERMISTON      CLOUDY    37  32  82 CALM      30.29S
PENDLETON      CLOUDY    34  31  88 N5        30.24R WCI  30

...EAST SLOPES CASCADES...

CITY           SKY/WX    TMP DP  RH WIND       PRES   REMARKS
THE DALLES     CLOUDY    38  33  82 SE3       30.31F
YAKIMA         CLOUDY    36  33  89 CALM      30.30F FOG
ELLENSBURG     CLOUDY    35  31  85 S3        30.26S
WENATCHEE      CLOUDY    37  32  82 CALM      30.30S
OMAK           CLOUDY    34  29  82 S7        30.30S WCI  28

...SOUTHERN BRITISH COLUMBIA...

CITY           SKY/WX    TMP DP  RH WIND       PRES   REMARKS

...WESTERN MONTANA...

CITY           SKY/WX    TMP DP  RH WIND       PRES   REMARKS
MISSOULA       CLOUDY    29  21  72 SE6       30.25S WCI  23

...NEIGHBORING CITIES...

CITY           SKY/WX    TMP DP  RH WIND       PRES   REMARKS
SEATTLE        CLOUDY    42  39  89 CALM      30.08F



USA.gov is the U.S. government's official web portal to all federal, state and local government web resources and services.